Tracking 30743 objects as of 23-Jun-2025
HD Live streaming from Space Station
objects crossing your sky now

STARLINK-3920

Track STARLINK-3920 now!
10-day predictions
STARLINK-3920 is classified as:


NORAD ID: 52575
Int'l Code: 2022-051AR
Perigee: 545.9 km
Apogee: 547.8 km
Inclination: 53.2 °
Period: 95.4 minutes
Semi major axis: 6917 km
RCS: Unknown
Launch date: May 13, 2022
Source: United States (US)
Launch site: AIR FORCE WESTERN TEST RANGE (AFWTR)
Your satellite tracking list
Your tracking list is empty




NASA's NSSDC Master Catalog

Two Line Element Set (TLE):
1 52575U 22051AR  25173.49424098 -.00002911  00000-0 -16489-3 0  9998
2 52575  53.2151 207.1804 0001392 106.3471 253.7675 15.08841294172379
Source of the keplerian elements: AFSPC